Time,TemperatureF,DewpointF,PressureIn,WindDirection,WindDirectionDegrees,WindSpeedMPH,WindSpeedGustMPH,Humidity,HourlyPrecipIn,Conditions,Clouds,dailyrainin,SoftwareType,DateUTC
2013-08-31 00:03:00,68.9,67.1,29.75,SSW,202,1.1,-999.0,94,-99.99,,,0.00,Acu-Link.com,2013-08-31 04:03:00,
2013-08-31 00:18:00,68.7,66.9,29.74,ENE,67,2.2,-999.0,94,-99.99,,,0.00,Acu-Link.com,2013-08-31 04:18:00,
2013-08-31 00:33:00,68.5,66.7,29.74,SSW,202,0.0,-999.0,94,-99.99,,,0.00,Acu-Link.com,2013-08-31 04:33:00,
2013-08-31 00:48:00,68.4,66.6,29.73,NW,315,2.2,-999.0,94,-99.99,,,0.00,Acu-Link.com,2013-08-31 04:48:00,
2013-08-31 01:04:00,68.4,66.6,29.73,WNW,292,0.0,-999.0,94,-99.99,,,0.00,Acu-Link.com,2013-08-31 05:04:00,
2013-08-31 01:19:00,68.4,66.9,29.73,SSW,202,0.0,-999.0,95,-99.99,,,0.00,Acu-Link.com,2013-08-31 05:19:00,
2013-08-31 01:34:00,68.2,66.7,29.74,East,90,0.0,-999.0,95,-99.99,,,0.00,Acu-Link.com,2013-08-31 05:34:00,
2013-08-31 01:49:00,68.0,66.5,29.72,ESE,112,0.0,-999.0,95,-99.99,,,0.00,Acu-Link.com,2013-08-31 05:49:00,
2013-08-31 02:04:00,67.8,66.3,29.71,ENE,67,1.1,-999.0,95,-99.99,,,0.00,Acu-Link.com,2013-08-31 06:04:00,
2013-08-31 02:20:00,67.8,66.6,29.72,South,180,0.0,-999.0,96,-99.99,,,0.00,Acu-Link.com,2013-08-31 06:20:00,
2013-08-31 02:35:00,67.6,66.4,29.72,NE,45,2.7,-999.0,96,-99.99,,,0.00,Acu-Link.com,2013-08-31 06:35:00,
2013-08-31 02:50:00,67.8,66.6,29.72,SW,225,4.2,-999.0,96,-99.99,,,0.00,Acu-Link.com,2013-08-31 06:50:00,
2013-08-31 03:06:00,68.0,66.8,29.72,ESE,112,3.7,-999.0,96,-99.99,,,0.00,Acu-Link.com,2013-08-31 07:06:00,
2013-08-31 03:21:00,68.2,67.0,29.72,West,270,2.7,-999.0,96,-99.99,,,0.00,Acu-Link.com,2013-08-31 07:21:00,
2013-08-31 03:36:00,68.7,67.5,29.71,SE,135,2.7,-999.0,96,-99.99,,,0.00,Acu-Link.com,2013-08-31 07:36:00,
2013-08-31 03:51:00,68.7,67.5,29.72,East,90,5.8,-999.0,96,-99.99,,,0.00,Acu-Link.com,2013-08-31 07:51:00,
2013-08-31 04:07:00,68.9,67.7,29.71,ESE,112,2.7,-999.0,96,-99.99,,,0.00,Acu-Link.com,2013-08-31 08:07:00,
2013-08-31 04:22:00,68.9,67.7,29.71,SW,225,4.2,-999.0,96,-99.99,,,0.00,Acu-Link.com,2013-08-31 08:22:00,
2013-08-31 04:37:00,69.3,68.1,29.72,SSW,202,5.3,-999.0,96,-99.99,,,0.00,Acu-Link.com,2013-08-31 08:37:00,
2013-08-31 04:53:00,69.3,68.1,29.72,West,270,3.2,-999.0,96,-99.99,,,0.00,Acu-Link.com,2013-08-31 08:53:00,
2013-08-31 05:08:00,69.4,68.2,29.71,SE,135,2.2,-999.0,96,-99.99,,,0.00,Acu-Link.com,2013-08-31 09:08:00,
2013-08-31 05:23:00,69.6,68.4,29.71,East,90,3.7,-999.0,96,-99.99,,,0.00,Acu-Link.com,2013-08-31 09:23:00,
2013-08-31 05:38:00,70.0,68.8,29.71,WNW,292,2.2,-999.0,96,-99.99,,,0.00,Acu-Link.com,2013-08-31 09:38:00,
2013-08-31 05:53:00,70.0,68.8,29.72,WSW,247,1.1,-999.0,96,-99.99,,,0.00,Acu-Link.com,2013-08-31 09:53:00,
2013-08-31 06:08:00,70.0,68.8,29.72,South,180,0.0,-999.0,96,-99.99,,,0.00,Acu-Link.com,2013-08-31 10:08:00,
2013-08-31 06:24:00,70.2,69.0,29.72,SSE,157,1.7,-999.0,96,-99.99,,,0.00,Acu-Link.com,2013-08-31 10:24:00,
2013-08-31 06:39:00,70.0,68.8,29.72,East,90,1.7,-999.0,96,-99.99,,,0.00,Acu-Link.com,2013-08-31 10:39:00,
2013-08-31 06:54:00,70.0,68.8,29.72,NW,315,1.1,-999.0,96,-99.99,,,0.00,Acu-Link.com,2013-08-31 10:54:00,
2013-08-31 07:10:00,70.3,68.8,29.72,South,180,2.2,-999.0,95,-99.99,,,0.00,Acu-Link.com,2013-08-31 11:10:00,
2013-08-31 07:25:00,70.7,68.9,29.72,NE,45,3.2,-999.0,94,-99.99,,,0.00,Acu-Link.com,2013-08-31 11:25:00,
2013-08-31 07:40:00,71.1,69.3,29.72,SSW,202,2.2,-999.0,94,-99.99,,,0.00,Acu-Link.com,2013-08-31 11:40:00,
2013-08-31 07:55:00,71.4,69.3,29.72,ESE,112,0.0,-999.0,93,-99.99,,,0.00,Acu-Link.com,2013-08-31 11:55:00,
2013-08-31 08:10:00,71.8,69.7,29.73,East,90,4.7,-999.0,93,-99.99,,,0.00,Acu-Link.com,2013-08-31 12:10:00,
2013-08-31 08:26:00,72.1,69.6,29.72,SE,135,2.7,-999.0,92,-99.99,,,0.00,Acu-Link.com,2013-08-31 12:26:00,
2013-08-31 08:41:00,72.3,69.8,29.72,SE,135,1.7,-999.0,92,-99.99,,,0.00,Acu-Link.com,2013-08-31 12:41:00,
2013-08-31 08:56:00,72.5,70.0,29.72,NNE,22,2.2,-999.0,92,-99.99,,,0.00,Acu-Link.com,2013-08-31 12:56:00,
2013-08-31 09:11:00,72.9,70.4,29.73,NNE,22,2.2,-999.0,92,-99.99,,,0.00,Acu-Link.com,2013-08-31 13:11:00,
2013-08-31 09:27:00,73.0,70.5,29.73,SW,225,0.0,-999.0,92,-99.99,,,0.00,Acu-Link.com,2013-08-31 13:27:00,
2013-08-31 09:42:00,73.8,71.0,29.73,WNW,292,1.7,-999.0,91,-99.99,,,0.00,Acu-Link.com,2013-08-31 13:42:00,
2013-08-31 09:57:00,74.7,71.9,29.73,ESE,112,0.0,-999.0,91,-99.99,,,0.00,Acu-Link.com,2013-08-31 13:57:00,
2013-08-31 10:12:00,75.0,71.9,29.72,ENE,67,0.0,-999.0,90,-99.99,,,0.00,Acu-Link.com,2013-08-31 14:12:00,
2013-08-31 10:28:00,75.2,71.4,29.71,North,0,4.2,-999.0,88,-99.99,,,0.00,Acu-Link.com,2013-08-31 14:28:00,
2013-08-31 10:43:00,75.4,71.6,29.73,ESE,112,2.7,-999.0,88,-99.99,,,0.00,Acu-Link.com,2013-08-31 14:43:00,
2013-08-31 10:58:00,75.7,71.9,29.72,NNW,337,3.2,-999.0,88,-99.99,,,0.00,Acu-Link.com,2013-08-31 14:58:00,
2013-08-31 11:13:00,75.9,72.1,29.73,ENE,67,0.0,-999.0,88,-99.99,,,0.00,Acu-Link.com,2013-08-31 15:13:00,
2013-08-31 11:29:00,76.3,72.1,29.73,NNW,337,2.7,-999.0,87,-99.99,,,0.00,Acu-Link.com,2013-08-31 15:29:00,
2013-08-31 11:44:00,76.3,71.8,29.71,ENE,67,2.7,-999.0,86,-99.99,,,0.00,Acu-Link.com,2013-08-31 15:44:00,
2013-08-31 11:59:00,76.6,72.1,29.72,NNE,22,5.3,-999.0,86,-99.99,,,0.00,Acu-Link.com,2013-08-31 15:59:00,
2013-08-31 12:14:00,77.5,73.0,29.71,SSW,202,2.2,-999.0,86,-99.99,,,0.00,Acu-Link.com,2013-08-31 16:14:00,
2013-08-31 12:30:00,77.7,72.5,29.72,NE,45,2.2,-999.0,84,-99.99,,,0.00,Acu-Link.com,2013-08-31 16:30:00,
2013-08-31 12:45:00,77.5,73.0,29.71,SW,225,0.0,-999.0,86,-99.99,,,0.00,Acu-Link.com,2013-08-31 16:45:00,
2013-08-31 13:00:00,77.0,72.1,29.71,WSW,247,2.7,-999.0,85,-99.99,,,0.00,Acu-Link.com,2013-08-31 17:00:00,
2013-08-31 13:15:00,76.5,72.0,29.72,SSW,202,1.1,-999.0,86,-99.99,,,0.00,Acu-Link.com,2013-08-31 17:15:00,
2013-08-31 13:30:00,77.2,73.0,29.71,SW,225,0.0,-999.0,87,-99.99,,,0.00,Acu-Link.com,2013-08-31 17:30:00,
2013-08-31 13:46:00,77.2,72.7,29.72,WSW,247,3.2,-999.0,86,-99.99,,,0.00,Acu-Link.com,2013-08-31 17:46:00,
2013-08-31 14:01:00,77.5,72.6,29.72,ESE,112,2.2,-999.0,85,-99.99,,,0.00,Acu-Link.com,2013-08-31 18:01:00,
2013-08-31 14:16:00,77.0,72.5,29.71,SSE,157,1.7,-999.0,86,-99.99,,,0.00,Acu-Link.com,2013-08-31 18:16:00,
2013-08-31 14:31:00,77.2,72.7,29.70,SW,225,2.7,-999.0,86,-99.99,,,0.00,Acu-Link.com,2013-08-31 18:31:00,
2013-08-31 14:46:00,77.2,72.7,29.71,West,270,4.2,-999.0,86,-99.99,,,0.00,Acu-Link.com,2013-08-31 18:46:00,
2013-08-31 15:02:00,77.5,73.0,29.71,WNW,292,0.0,-999.0,86,-99.99,,,0.00,Acu-Link.com,2013-08-31 19:02:00,
2013-08-31 15:17:00,77.4,72.9,29.71,WNW,292,3.7,-999.0,86,-99.99,,,0.00,Acu-Link.com,2013-08-31 19:17:00,
2013-08-31 15:32:00,76.8,72.6,29.72,NE,45,0.0,-999.0,87,-99.99,,,0.00,Acu-Link.com,2013-08-31 19:32:00,
2013-08-31 15:47:00,76.6,72.4,29.71,NE,45,2.2,-999.0,87,-99.99,,,0.00,Acu-Link.com,2013-08-31 19:47:00,
2013-08-31 16:02:00,76.3,72.1,29.72,NNW,337,1.7,-999.0,87,-99.99,,,0.00,Acu-Link.com,2013-08-31 20:02:00,
2013-08-31 16:18:00,76.1,72.3,29.71,SSE,157,0.0,-999.0,88,-99.99,,,0.00,Acu-Link.com,2013-08-31 20:18:00,
2013-08-31 16:33:00,75.7,71.9,29.71,WSW,247,1.7,-999.0,88,-99.99,,,0.00,Acu-Link.com,2013-08-31 20:33:00,
2013-08-31 16:48:00,75.4,71.6,29.72,East,90,0.0,-999.0,88,-99.99,,,0.00,Acu-Link.com,2013-08-31 20:48:00,
2013-08-31 17:03:00,75.0,71.2,29.69,East,90,2.2,-999.0,88,-99.99,,,0.00,Acu-Link.com,2013-08-31 21:03:00,
2013-08-31 17:19:00,75.0,71.5,29.70,East,90,1.1,-999.0,89,-99.99,,,0.00,Acu-Link.com,2013-08-31 21:19:00,
2013-08-31 17:34:00,75.2,71.7,29.69,SE,135,0.0,-999.0,89,-99.99,,,0.00,Acu-Link.com,2013-08-31 21:34:00,
2013-08-31 17:49:00,75.0,71.5,29.69,ENE,67,0.0,-999.0,89,-99.99,,,0.00,Acu-Link.com,2013-08-31 21:49:00,
2013-08-31 18:04:00,74.7,71.6,29.69,SW,225,2.2,-999.0,90,-99.99,,,0.00,Acu-Link.com,2013-08-31 22:04:00,
2013-08-31 18:19:00,74.5,71.4,29.69,WSW,247,1.7,-999.0,90,-99.99,,,0.00,Acu-Link.com,2013-08-31 22:19:00,
2013-08-31 18:35:00,74.3,71.5,29.69,SSW,202,0.0,-999.0,91,-99.99,,,0.00,Acu-Link.com,2013-08-31 22:35:00,
2013-08-31 18:50:00,73.9,71.1,29.70,East,90,3.2,-999.0,91,-99.99,,,0.00,Acu-Link.com,2013-08-31 22:50:00,
2013-08-31 19:05:00,73.8,71.0,29.69,NE,45,3.7,-999.0,91,-99.99,,,0.00,Acu-Link.com,2013-08-31 23:05:00,
2013-08-31 19:20:00,73.4,70.9,29.69,West,270,2.2,-999.0,92,-99.99,,,0.00,Acu-Link.com,2013-08-31 23:20:00,
2013-08-31 19:35:00,73.2,70.7,29.71,SSE,157,2.2,-999.0,92,-99.99,,,0.00,Acu-Link.com,2013-08-31 23:35:00,
2013-08-31 19:51:00,73.2,70.7,29.71,NE,45,2.2,-999.0,92,-99.99,,,0.00,Acu-Link.com,2013-08-31 23:51:00,
2013-08-31 20:06:00,73.2,70.7,29.71,SW,225,1.1,-999.0,92,-99.99,,,0.00,Acu-Link.com,2013-09-01 00:06:00,
2013-08-31 20:21:00,73.0,70.5,29.70,East,90,0.0,-999.0,92,-99.99,,,0.00,Acu-Link.com,2013-09-01 00:21:00,
2013-08-31 20:36:00,73.0,70.9,29.71,South,180,1.1,-999.0,93,-99.99,,,0.00,Acu-Link.com,2013-09-01 00:36:00,
2013-08-31 20:51:00,73.0,70.9,29.71,SW,225,0.0,-999.0,93,-99.99,,,0.00,Acu-Link.com,2013-09-01 00:51:00,
2013-08-31 21:07:00,72.9,70.8,29.71,South,180,0.0,-999.0,93,-99.99,,,0.00,Acu-Link.com,2013-09-01 01:07:00,
2013-08-31 21:22:00,72.7,70.6,29.73,NE,45,2.7,-999.0,93,-99.99,,,0.00,Acu-Link.com,2013-09-01 01:22:00,
2013-08-31 21:37:00,72.5,70.7,29.72,SW,225,0.0,-999.0,94,-99.99,,,0.00,Acu-Link.com,2013-09-01 01:37:00,
2013-08-31 21:52:00,72.3,70.5,29.72,East,90,0.0,-999.0,94,-99.99,,,0.00,Acu-Link.com,2013-09-01 01:52:00,
2013-08-31 22:07:00,72.1,70.3,29.72,NE,45,0.0,-999.0,94,-99.99,,,0.00,Acu-Link.com,2013-09-01 02:07:00,
2013-08-31 22:23:00,72.0,70.2,29.72,North,0,1.7,-999.0,94,-99.99,,,0.00,Acu-Link.com,2013-09-01 02:23:00,
2013-08-31 22:38:00,72.0,70.2,29.73,South,180,2.7,-999.0,94,-99.99,,,0.00,Acu-Link.com,2013-09-01 02:38:00,
2013-08-31 22:53:00,71.8,70.0,29.72,SE,135,0.0,-999.0,94,-99.99,,,0.00,Acu-Link.com,2013-09-01 02:53:00,
2013-08-31 23:08:00,71.8,70.0,29.73,SW,225,0.0,-999.0,94,-99.99,,,0.00,Acu-Link.com,2013-09-01 03:08:00,
2013-08-31 23:24:00,72.0,70.2,29.74,East,90,2.7,-999.0,94,-99.99,,,0.00,Acu-Link.com,2013-09-01 03:24:00,
2013-08-31 23:39:00,72.0,70.2,29.73,ENE,67,2.2,-999.0,94,-99.99,,,0.00,Acu-Link.com,2013-09-01 03:39:00,
2013-08-31 23:54:00,72.0,70.2,29.73,WSW,247,3.2,-999.0,94,-99.99,,,0.00,Acu-Link.com,2013-09-01 03:54:00,